This demonstration page uses our WeatherBlox Daily Observations layout. Learn more.

Left ArrowRight Arrow

41.55636, -103.73856

Hourly Observations for April 13, 2018

Temp ( °F °C ) Dew Point ( °F °C ) Humidity (%) Winds ( mph kmh ) Pressure ( in mb ) Visibility ( mi km ) Precip ( " mm )
12:58 am 00:58 Windy with Rain Showers Likely 38 3.5 33 0.7 82 82 NNW 24 39 29.55 1001 10 16 N/A
1:58 am 01:58 Cloudy with Light Rain 36 2 34 1 93 93 NW 24 39 29.53 1000 10 16 0.02 0.51
2:58 am 02:58 Cloudy with Light Rain 37 2.9 31 -0.8 77 77 NW 17 28 29.52 1000 10 16 0.02 0.51
3:58 am 03:58 Windy with Rain Showers Likely 38 3.1 27 -2.6 67 67 NW 28 44 29.55 1001 10 16 N/A
4:58 am 04:58 Windy with Snow Showers Likely 34 1 33 0.3 95 95 NW 28 44 29.52 1000 6 10 0.02 0.51
5:58 am 05:58 Cloudy with Heavy Rain/Snow 33 0.4 32 -0.2 96 96 NNW 35 56 29.58 1002 2 2 0.02 0.51
6:58 am 06:58 Windy with Snow Likely 33 0.3 32 -0.2 96 96 NNW 33 54 29.63 1003 1 2 0.02 0.51
7:58 am 07:58 Very Windy with Snow Likely 32 -0.1 31 -0.7 96 96 NNW 40 65 29.67 1005 7 11 0.01 0.25
8:58 am 08:58 Mostly Cloudy with Snow 31 -0.4 30 -1 96 96 NNW 32 52 29.70 1006 1 1 0.01 0.25
9:58 am 09:58 Cloudy with Snow 30 -0.9 29 -1.4 96 96 NNW 40 65 29.72 1007 1 1 0.01 0.25
10:58 am 10:58 Cloudy with Snow 30 -1.1 29 -1.5 97 97 NNW 44 70 29.77 1008 3 5 0.01 0.25
11:58 am 11:58 Mostly Cloudy with Heavy Snow 29 -1.4 29 -1.6 99 99 NNW 39 63 29.82 1010 0 0 0.02 0.51
12:58 pm 12:58 Mostly Cloudy with Heavy Snow 29 -1.7 29 -1.9 99 99 N 36 57 29.85 1011 0 0 0.01 0.25
1:58 pm 13:58 Cloudy with Snow 29 -1.6 29 -1.9 98 98 NNW 41 67 29.86 1011 0 0 0.02 0.51
2:58 pm 14:58 Cloudy with Heavy Snow 29 -1.6 29 -1.9 98 98 N 40 65 29.89 1012 1 2 0.02 0.51
3:58 pm 15:58 Mostly Cloudy N/A N/A N/A N 43 69 N/A N/A N/A
4:58 pm 16:58 Mostly Cloudy with Heavy Snow 26 -3.5 25 -3.8 98 98 N 33 54 30.01 1016 0 0 N/A
5:58 pm 17:58 Cloudy with Snow 25 -3.7 24 -4.2 96 96 N 31 50 30.08 1019 1 1 N/A
6:58 pm 18:58 Windy with Snow Likely 24 -4.5 23 -5.1 96 96 N 29 46 30.11 1020 1 1 N/A
7:58 pm 19:58 Cloudy with Snow 21 -6.3 20 -6.9 96 96 N 26 43 30.18 1022 7 11 N/A
8:58 pm 20:58 Cloudy with Snow 20 -6.4 19 -7.1 95 95 N 29 46 30.21 1023 1 2 N/A
9:58 pm 21:58 Mostly Cloudy with Heavy Snow 19 -7 18 -7.7 95 95 N 29 46 30.26 1025 5 8 N/A
10:58 pm 22:58 Cloudy with Snow 19 -7.4 17 -8.2 94 94 N 25 41 30.27 1025 1 2 N/A
11:58 pm 23:58 Windy with Snow Likely 19 -7.4 17 -8.2 94 94 N 26 43 30.27 1025 2 3 N/A

Powered by AerisWeather